TimeCDT,TemperatureF,Dew PointF,Humidity,Sea Level PressureIn,VisibilityMPH,Wind Direction,Wind SpeedMPH,Gust SpeedMPH,PrecipitationIn,Events,Conditions,WindDirDegrees,DateUTC
12:15 AM,77.9,53.1,42,30.14,10.0,NE,13.8,20.7,N/A,,Clear,40,2013-07-11 05:15:00
12:35 AM,75.2,56.1,51,30.16,10.0,NNE,13.8,19.6,N/A,,Clear,30,2013-07-11 05:35:00
12:55 AM,72.7,59.9,64,30.16,10.0,North,21.9,25.3,N/A,,Clear,10,2013-07-11 05:55:00
1:15 AM,70.7,62.4,75,30.17,10.0,North,17.3,27.6,N/A,,Scattered Clouds,10,2013-07-11 06:15:00
1:35 AM,70.3,62.4,76,30.17,10.0,NNE,18.4,24.2,N/A,,Scattered Clouds,20,2013-07-11 06:35:00
1:55 AM,70.7,60.8,71,30.17,10.0,North,18.4,24.2,N/A,,Scattered Clouds,10,2013-07-11 06:55:00
2:15 AM,70.7,59.4,67,30.19,10.0,North,20.7,24.2,N/A,,Clear,350,2013-07-11 07:15:00
2:35 AM,69.8,59.0,68,30.19,10.0,North,17.3,23.0,N/A,,Clear,350,2013-07-11 07:35:00
2:55 AM,70.0,58.5,67,30.18,10.0,North,12.7,19.6,N/A,,Clear,350,2013-07-11 07:55:00
3:15 AM,69.4,59.2,70,30.17,10.0,North,12.7,-,N/A,,Clear,350,2013-07-11 08:15:00
3:35 AM,67.5,61.0,80,30.16,10.0,North,9.2,16.1,N/A,Rain,Light Rain,360,2013-07-11 08:35:00
3:55 AM,67.5,61.5,81,30.14,10.0,NNE,3.5,-,N/A,,Scattered Clouds,20,2013-07-11 08:55:00
4:15 AM,68.7,61.0,76,30.14,10.0,North,3.5,-,N/A,,Clear,10,2013-07-11 09:15:00
4:35 AM,68.9,61.0,76,30.14,10.0,NW,5.8,-,N/A,,Clear,320,2013-07-11 09:35:00
4:55 AM,68.9,61.0,76,30.14,10.0,SW,6.9,-,N/A,,Clear,230,2013-07-11 09:55:00
5:15 AM,69.6,60.6,73,30.12,10.0,WSW,4.6,-,N/A,,Clear,250,2013-07-11 10:15:00
5:35 AM,69.8,60.1,71,30.11,10.0,WSW,5.8,-,N/A,,Clear,250,2013-07-11 10:35:00
5:55 AM,68.5,59.9,74,30.10,10.0,WSW,5.8,-,N/A,,Clear,250,2013-07-11 10:55:00
6:15 AM,66.6,59.9,79,30.11,10.0,WSW,3.5,-,N/A,,Clear,250,2013-07-11 11:15:00
6:35 AM,66.2,60.1,81,30.11,10.0,Calm,Calm,-,N/A,,Clear,0,2013-07-11 11:35:00
6:55 AM,65.8,59.9,81,30.11,10.0,WSW,6.9,-,N/A,,Clear,250,2013-07-11 11:55:00
7:15 AM,66.2,60.3,81,30.12,10.0,WSW,9.2,-,N/A,,Clear,250,2013-07-11 12:15:00
7:35 AM,68.5,61.7,79,30.12,10.0,West,9.2,-,N/A,,Clear,260,2013-07-11 12:35:00
7:55 AM,68.2,62.4,82,30.13,10.0,West,9.2,-,N/A,,Clear,270,2013-07-11 12:55:00
8:15 AM,68.9,62.6,80,30.13,10.0,West,6.9,-,N/A,,Clear,270,2013-07-11 13:15:00
8:35 AM,72.5,63.3,73,30.15,10.0,WNW,9.2,-,N/A,,Clear,290,2013-07-11 13:35:00
8:55 AM,73.2,63.9,72,30.16,10.0,NW,4.6,-,N/A,,Clear,320,2013-07-11 13:55:00
9:15 AM,74.5,63.1,68,30.16,10.0,WNW,4.6,-,N/A,,Clear,300,2013-07-11 14:15:00
9:35 AM,76.3,64.0,66,30.16,10.0,NW,12.7,-,N/A,,Clear,320,2013-07-11 14:35:00
9:55 AM,74.7,64.9,72,30.17,10.0,WNW,8.1,-,N/A,,Clear,300,2013-07-11 14:55:00
10:15 AM,75.6,63.3,66,30.17,10.0,West,8.1,-,N/A,,Clear,270,2013-07-11 15:15:00
10:35 AM,75.4,63.7,67,30.16,10.0,West,5.8,-,N/A,,Clear,260,2013-07-11 15:35:00
10:55 AM,77.7,62.1,58,30.17,10.0,WSW,5.8,-,N/A,,Clear,250,2013-07-11 15:55:00
11:15 AM,78.1,61.7,57,30.16,10.0,Calm,Calm,-,N/A,,Clear,0,2013-07-11 16:15:00
11:35 AM,80.8,59.2,48,30.15,10.0,SSE,5.8,-,N/A,,Clear,150,2013-07-11 16:35:00
11:55 AM,81.7,61.3,50,30.15,10.0,SE,5.8,-,N/A,,Clear,140,2013-07-11 16:55:00
12:15 PM,81.9,61.0,49,30.15,10.0,SSE,5.8,-,N/A,,Clear,150,2013-07-11 17:15:00
12:35 PM,81.9,60.4,48,30.14,10.0,SE,3.5,-,N/A,,Clear,130,2013-07-11 17:35:00
12:55 PM,83.3,59.9,45,30.13,10.0,East,4.6,-,N/A,,Clear,90,2013-07-11 17:55:00
1:15 PM,85.8,55.9,36,30.12,10.0,NNW,4.6,-,N/A,,Clear,330,2013-07-11 18:15:00
1:35 PM,87.1,58.3,38,30.11,10.0,SSW,6.9,-,N/A,,Clear,200,2013-07-11 18:35:00
1:55 PM,87.3,59.2,39,30.11,10.0,SSW,5.8,-,N/A,,Clear,210,2013-07-11 18:55:00
2:15 PM,87.4,59.0,38,30.10,10.0,Calm,Calm,-,N/A,,Clear,0,2013-07-11 19:15:00
2:35 PM,89.1,58.6,36,30.08,10.0,South,5.8,-,N/A,,Clear,170,2013-07-11 19:35:00
2:55 PM,91.4,58.1,32,30.07,10.0,West,5.8,-,N/A,,Clear,260,2013-07-11 19:55:00
3:15 PM,91.8,56.3,30,30.07,10.0,SSW,13.8,23.0,N/A,,Clear,200,2013-07-11 20:15:00
3:35 PM,92.5,56.3,29,30.06,10.0,South,10.4,24.2,N/A,,Clear,170,2013-07-11 20:35:00
3:55 PM,92.7,56.5,29,30.06,10.0,SSW,10.4,18.4,N/A,,Clear,200,2013-07-11 20:55:00
4:15 PM,92.7,56.5,29,30.05,10.0,SSW,10.4,18.4,N/A,,Clear,210,2013-07-11 21:15:00
4:35 PM,92.3,56.7,30,30.04,10.0,South,11.5,18.4,N/A,,Clear,180,2013-07-11 21:35:00
4:55 PM,92.1,56.3,30,30.03,10.0,South,10.4,17.3,N/A,,Clear,170,2013-07-11 21:55:00
5:15 PM,92.7,56.1,29,30.02,10.0,South,5.8,-,N/A,,Clear,180,2013-07-11 22:15:00
5:35 PM,91.8,56.3,30,30.02,10.0,SSE,21.9,27.6,N/A,,Clear,160,2013-07-11 22:35:00
5:55 PM,90.5,59.9,36,30.01,10.0,SSE,21.9,25.3,N/A,,Clear,150,2013-07-11 22:55:00
6:15 PM,89.4,58.8,36,30.01,10.0,SSE,15.0,18.4,N/A,,Clear,150,2013-07-11 23:15:00
6:35 PM,88.9,57.6,35,30.00,10.0,SSE,15.0,-,N/A,,Clear,160,2013-07-11 23:35:00
6:55 PM,88.0,57.4,35,30.00,10.0,SE,10.4,-,N/A,,Scattered Clouds,140,2013-07-11 23:55:00
7:15 PM,90.5,57.0,32,30.00,10.0,SE,9.2,-,N/A,,Scattered Clouds,140,2013-07-12 00:15:00
7:35 PM,90.9,56.1,31,30.00,10.0,South,13.8,-,N/A,,Clear,170,2013-07-12 00:35:00
7:55 PM,88.7,57.2,34,30.00,10.0,SSE,12.7,-,N/A,,Clear,160,2013-07-12 00:55:00
8:15 PM,87.6,55.9,34,30.00,10.0,SSE,12.7,-,N/A,,Clear,150,2013-07-12 01:15:00
8:35 PM,86.7,55.8,35,30.00,10.0,SSE,15.0,-,N/A,,Clear,150,2013-07-12 01:35:00
8:55 PM,85.3,55.6,36,30.00,10.0,SSE,16.1,-,N/A,,Clear,150,2013-07-12 01:55:00
9:15 PM,84.2,55.9,38,30.00,10.0,SSE,11.5,-,N/A,,Clear,150,2013-07-12 02:15:00
9:35 PM,84.2,56.5,39,30.01,10.0,SE,10.4,16.1,N/A,,Clear,140,2013-07-12 02:35:00
9:55 PM,84.0,56.5,39,30.02,10.0,SE,12.7,-,N/A,,Clear,140,2013-07-12 02:55:00
10:15 PM,84.0,56.3,39,30.03,10.0,SE,13.8,20.7,N/A,,Clear,130,2013-07-12 03:15:00
10:35 PM,82.8,56.3,40,30.03,10.0,SE,17.3,24.2,N/A,,Clear,140,2013-07-12 03:35:00
10:55 PM,80.8,56.5,43,30.04,10.0,SE,15.0,-,N/A,,Clear,130,2013-07-12 03:55:00
11:15 PM,79.5,58.3,48,30.05,10.0,SSE,20.7,24.2,N/A,,Clear,150,2013-07-12 04:15:00
11:35 PM,78.6,58.8,50,30.05,10.0,SE,15.0,-,N/A,,Clear,140,2013-07-12 04:35:00
11:55 PM,77.5,59.0,53,30.05,10.0,SE,16.1,23.0,N/A,,Clear,140,2013-07-12 04:55:00